Location: Unspecified
(28.0250°N, 120.8490°E)
Time: 18:51:01
(UTC+00:00)

Daily predictions for brighter satellites

Satellite Brightness Start Highest point End
(mag) Time Altitude Azimuth Time Altitude Azimuth Time Altitude Azimuth
CZ-4C R/B 4.4 12:24:31 10° NW 12:31:53 37° WSW 12:34:35 31° SW
CZ-3 Stage 3 4.4 18:46:58 50° ENE 18:46:58 50° ENE 19:04:05 10° E
CZ-3 R/B 3.9 17:55:35 10° W 18:48:37 90° N 19:00:21 10° E
Atlas Centaur 2 4.4 19:13:48 29° SE 19:13:48 29° SE 19:17:33 10° SE
USA 238 DEB 3.9 20:13:51 61° NNW 20:15:31 90° NE 20:23:47 10° SSE
USA 238 4.0 20:13:54 60° NNW 20:15:38 89° ENE 20:23:54 10° SSE
Mugunghwa Rocket 4.5 20:21:04 61° WSW 20:22:46 82° S 20:31:31 10° E
Cosmos 1697 Rocket 2.5 20:30:08 76° SW 20:30:08 76° SW 20:35:34 10° SSE
Cosmos 1346 Rocket 4.0 20:29:47 10° SSE 20:32:26 36° SE 20:32:26 36° SE
COSMOS 2406 3.1 20:41:23 10° SSW 20:47:03 87° ESE 20:52:44 10° NNE
OAO 2 Rocket 4.2 20:49:13 22° SSW 20:52:13 47° SSE 20:57:07 10° ENE
Cosmos 1544 Rocket 3.8 20:53:33 49° SW 20:53:33 49° SW 20:57:07 10° S
Cosmos 841 Rocket 3.4 20:51:52 10° SSW 20:57:00 64° WNW 21:02:12 10° N
Atlas Centaur 2 4.2 20:55:45 20° WSW 20:58:21 24° SSW 21:04:29 10° SSE
SL-16 R/B 4.1 20:54:05 10° SSW 20:56:19 18° SW 20:56:19 18° SW
Cosmos 2082 Rocket 3.3 21:01:40 25° NNW 21:01:40 25° NNW 21:04:32 10° N
Delta 128 4.2 21:02:39 35° W 21:05:28 87° S 21:11:00 10° E
Atlas 2A Centaur Rocket 2.1 21:05:24 39° SW 21:05:39 40° SSW 21:07:49 10° SE
CZ-4 R/B 3.6 21:01:18 10° N 21:05:54 78° WNW 21:10:29 10° SSW
Cosmos 1354 Rocket 4.4 21:09:44 34° WNW 21:10:56 39° W 21:15:45 10° S
COSMOS 2455 3.9 21:06:34 10° N 21:12:16 42° ENE 21:17:54 10° SE
Cosmos 1892 Rocket 3.5 21:14:50 10° S 21:19:09 90° ESE 21:23:31 10° N
Centaur AC-119 4.1 21:14:25 10° SW 21:20:01 42° SSE 21:25:01 10° E
EPKM 2.3 21:18:12 24° WSW 21:20:05 51° S 21:22:17 10° E
Cosmos 2279 Rocket 4.5 21:15:50 16° NNW 21:20:18 37° W 21:25:56 10° SSW
OAO 3 Copernicus 4.3 21:18:40 27° W 21:21:20 65° NNW 21:26:19 10° ENE
BREEZE M DEB (TANK) 3.2 21:23:07 18° N 21:23:07 18° N 21:24:03 10° NNE
IRS-1D 3.9 21:21:47 10° N 21:26:27 40° WNW 21:31:12 10° SW
Cosmos 1898 Rocket 3.8 21:23:10 10° N 21:28:25 71° ENE 21:33:39 10° SSE
Cosmos 1980 Rocket 2.4 21:27:00 14° NW 21:31:32 50° WSW 21:36:52 10° S
Cosmos 967 Rocket 4.5 21:26:07 11° NNW 21:32:27 73° WSW 21:38:49 10° SSE
deb Centaur AC-2 4.0 21:31:40 22° W 21:34:22 82° SSW 21:39:00 10° ESE
Cosmos 2369 3.7 21:29:45 10° NNW 21:35:27 88° ENE 21:41:05 10° SSE
Cosmos 1933 3.3 21:32:02 10° NNW 21:35:43 50° W 21:39:22 10° S
CZ-3C R/B 3.3 21:31:55 10° WSW 21:35:45 47° SSE 21:55:07 10° E
Fermi 4.4 21:33:32 13° WSW 21:36:47 49° S 21:40:34 10° E
Cosmos 2026 Rocket 3.9 21:37:30 10° SSW 21:43:28 61° W 21:49:27 10° N
SKYMED 2 3.9 21:44:41 10° S 21:48:48 44° W 21:52:57 10° NNW
Aureole 1 Rocket 4.5 21:41:39 10° NNW 21:48:49 56° WSW 21:55:57 10° S
COSMO-SKYMED 1 2.4 21:46:01 10° S 21:50:04 68° WSW 21:54:10 10° NNW
Cosmos 1937 Rocket 3.5 21:48:24 10° NNW 21:53:33 89° E 21:58:40 10° SSE
Cosmos 2333 Rocket 3.9 21:51:04 10° N 21:56:10 32° ENE 22:01:13 10° SE
ARIANE 5 R/B 4.1 21:52:58 10° NNE 21:57:52 40° E 22:02:44 10° S
Cosmos-2242 3.6 21:53:49 10° N 21:57:58 59° E 22:02:04 10° SSE
SWAS 4.5 21:55:07 10° NNW 21:59:09 75° ENE 22:03:08 10° SSE
Cosmos 405 Rocket 2.7 21:56:30 10° S 21:59:41 67° E 22:02:54 10° NNE
Cosmos 372 Rocket 4.4 21:55:36 10° NNW 22:00:17 39° W 22:04:58 10° S
Cosmos 2058 Rocket 3.3 21:56:39 10° N 22:01:04 75° E 22:05:25 10° S
Cosmos 2360 Rocket 4.3 21:59:30 10° N 22:03:58 24° ENE 22:08:25 10° ESE
Cosmos 1092 Rocket 4.3 22:00:52 10° SSW 22:06:50 44° W 22:12:47 10° N
Cosmos 1814 Rocket 4.0 22:02:23 10° SSW 22:07:29 62° WNW 22:12:41 10° N
IRIDIUM 103 4.4 22:03:08 10° S 22:08:21 87° E 22:13:35 10° N
Delta 2 Rocket 3.4 22:09:17 10° NW 22:12:08 37° NNE 22:14:56 10° E
